Regional Weather Roundup
Issued by NWS

Home | Current Version | Previous Version | Text Only | Print | Product List | Glossary On
Versions: 1 2 3 4 5 6 7 8 9 10 11 12 13 14 15 16 17 18 19 20 21 22 23 24 25 26 27 28 29 30 31 32 33 34 35 36 37 38 39 40 41 42 43 44 45 46 47 48 49 50
000
ASUS44 KOUN 291010
RWROK

WEATHER ROUNDUP FOR OKLAHOMA
NATIONAL WEATHER SERVICE NORMAN OK
500 AM CDT FRI MAY 29 2015

NOTE: "FAIR" INDICATES FEW OR NO CLOUDS BELOW 12,000 FEET WITH NO
      SIGNIFICANT WEATHER AND/OR OBSTRUCTIONS TO VISIBILITY.

OKZ001>007-009>012-014-015-017-291100-
NORTHWEST OKLAHOMA AND THE PANHANDLE

CITY           SKY/WX    TMP DP  RH WIND       PRES   REMARKS
GAGE           CLOUDY    58  56  93 S7        29.95R
GUYMON         PTCLDY    56  56 100 N6        30.00S
ENID/WOODRING  CLOUDY    64  63  94 SE3       29.92R
$$

OKZ016-021>023-033>039-044-045-291100-
SOUTHWEST OKLAHOMA

CITY           SKY/WX    TMP DP  RH WIND       PRES   REMARKS
LAWTON/REGL    CLOUDY    65  62  90 SE7       29.93R
LAWTON/FT SILL CLOUDY    64  63  98 S6        29.92S
FREDERICK      CLOUDY    63  62  97 SE6       29.89F
CLINTON        CLOUDY    61  57  87 CALM      29.97R
HOBART         CLOUDY    61  60  97 E5        29.94R
ALTUS AFB      CLOUDY    62  62 100 E6        29.91R
$$

OKZ018>020-024>031-291100-
CENTRAL OKLAHOMA

CITY           SKY/WX    TMP DP  RH WIND       PRES   REMARKS
OKLAHOMA CITY  CLOUDY    66  61  84 S10G17    29.93R
OKC/WILEY POST CLOUDY    68  60  75 S9        29.92S
OKC/TINKER AFB CLOUDY    66  62  85 S14       29.93R
STILLWATER     CLOUDY    67  63  87 S6        29.93R
GUTHRIE        CLOUDY    66  62  87 SE5       29.93R
$$

OKZ008-013-054>072-291100-
NORTHEAST OKLAHOMA

CITY           SKY/WX    TMP DP  RH WIND       PRES   REMARKS
TULSA          LGT RAIN  70  68  93 SE7       29.94R
TULSA/JONES    LGT RAIN  69  66  90 SE6       29.94R VSB 1/4
PONCA CITY     CLOUDY    71  67  87 S3        29.92R
BARTLESVILLE   LGT RAIN  69  69 100 SE5       29.95S
MUSKOGEE       CLOUDY    68  66  93 S6        29.98R
$$

OKZ032-040>043-046>053-073>077-291100-
SOUTH CENTRAL/SOUTHEAST OKLAHOMA

CITY           SKY/WX    TMP DP  RH WIND       PRES   REMARKS
ARDMORE/DWNTWN LGT RAIN  64  63  94 CALM      29.94S
MCALESTER      LGT RAIN  68  66  93 NW3       29.95F
$$




USA.gov is the U.S. government's official web portal to all federal, state and local government web resources and services.